Regional Weather Roundup
Issued by NWS Cleveland, OH

Home | Current Version | Previous Version | Text Only | Print | Product List | Glossary Off
Versions: 1 2 3 4 5 6 7 8 9 10 11 12 13 14 15 16 17 18 19 20 21 22 23 24 25 26 27 28 29 30 31 32 33 34 35 36 37 38 39 40 41 42 43 44 45 46 47 48 49 50

000
ASUS41 KCLE 280010
RWRCLE
OHIO REGIONAL WEATHER ROUNDUP
NATIONAL WEATHER SERVICE WILMINGTON, OH
700 PM EST MON FEB 27 2017

NOTE: "FAIR" INDICATES FEW OR NO CLOUDS BELOW 12,000 FEET WITH NO
SIGNIFICANT WEATHER AND/OR OBSTRUCTIONS TO VISIBILITY.

OHZ001>008-015>018-024>027-034-035-043-044-280100-
   NORTHWEST OHIO

CITY           SKY/WX    TMP DP  RH WIND       PRES   REMARKS
DEFIANCE       FAIR      45  35  68 S8        30.17S
FINDLAY        FAIR      44  36  73 SE10      30.19S
TOLEDO EXPRESS CLOUDY    45  35  68 S9        30.18S
TOLEDO EXEC    CLOUDY    46  39  76 S9        30.21R
LIMA           CLOUDY    44  39  82 SE9       30.19R
$$

OHZ009>014-019>023-028>033-038-089-280100-
   NORTHEAST OHIO

CITY           SKY/WX    TMP DP  RH WIND       PRES   REMARKS
CLE-HOPKINS    MOCLDY    46  35  65 S10       30.26S
CLE-LAKEFRONT  CLOUDY    47  33  58 S10       30.24S
CUY CO. ARPT   MOCLDY    46  32  57 S12       30.25S
LORAIN-ELYRIA  CLOUDY    44  34  67 S8        30.23S
ASHTABULA      CLOUDY    44  28  53 S5        30.26S
AKRON-CANTON   CLOUDY    42  35  76 S7        30.25S
WOOSTER        CLOUDY    40  36  86 S6        30.25S
MANSFIELD      CLOUDY    42  36  79 SE8       30.22F
YOUNGSTOWN     MOCLDY    42  34  73 S5        30.26S
$$

OHZ042-051>053-060>062-070>072-077>081-280100-
  SOUTHWEST OHIO

CITY           SKY/WX    TMP DP  RH WIND       PRES   REMARKS
CINC-COVINGTON MOCLDY    46  41  82 SE7       30.18S
CINC-LUNKEN    MOCLDY    47  41  80 CALM      30.21S
HAMILTON       CLOUDY    46  43  89 SE5       30.20S
DAYTON         MOCLDY    45  41  86 SE5       30.19S
WRIGHT-PAT AFB CLOUDY    46  44  91 SE8       30.18F
DAYTON GENERAL FAIR      44  42  93 SE7       30.18F
WILMINGTON     FAIR      42  41  96 SE8       30.20S
$$

OHZ036-037-039>041-045>050-054>059-063>069-073>076-082>088-280100-
  CENTRAL AND SOUTHEAST OHIO

CITY           SKY/WX    TMP DP  RH WIND       PRES   REMARKS
COLUMBUS       CLOUDY    46  41  82 SE7       30.23S
OSU AIRPORT    CLOUDY    45  41  86 SE8       30.22S
BOLTON FIELD   CLOUDY    43  43 100 SE6       30.23S
RICKENBACK AFB CLOUDY    43  42  96 SE3       30.23S
NEWARK         CLOUDY    44  40  85 CALM      30.23F
MARION         CLOUDY    43  38  82 SE8       30.22F
LANCASTER      CLOUDY    45  42  89 SE5       30.24F
ZANESVILLE     CLOUDY    43  40  89 SE3       30.25F
NEW PHILLY     CLOUDY    42  37  82 SE5       30.27S
$$



USA.gov is the U.S. government's official web portal to all federal, state and local government web resources and services.